Tracking 27122 objects as of 24-Mar-2023
HD Live streaming from Space Station
objects crossing your sky now

TIROS 2 DEB *

Track TIROS 2 DEB * now!
10-day predictions


NORAD ID: 5922
Int'l Code: 1960-016E
Perigee: 977.4 km
Apogee: 1,037.3 km
Inclination: 47.0 °
Period: 105.1 minutes
Semi major axis: 7378 km
RCS: 0.0192 m2 (small)
Launch date: November 23, 1960
Source: United States (US)
Launch site: AIR FORCE EASTERN TEST RANGE (AFETR)

Note: This is SATELLITE DEBRIS
Your satellite tracking list
Your tracking list is empty




NASA's NSSDC Master Catalog

Two Line Element Set (TLE):
1 05922U 60016E   23082.87596558 -.00000016  00000-0  12908-3 0  9990
2 05922  47.0312 294.4882 0040612   7.8801   7.0752 13.69827139589485
Source of the keplerian elements: AFSPC